• In United Kingdom
  • List of Countries
  • For 7 days
  • Water Temperature
  • Satellite Maps
  • Weather Map
  • Weather Widgets
  • user-avatar
    Login

    Hourly Weather Makarov

    Today, 21 February, Wednesday

    Time Temperature Precipitation Wind Pressure Humidity
    00:00 -6°C° 0 mm 1 mps 755 mmHg 91%
    01:00 -6°C° 0 mm 1 mps 755 mmHg 91%
    02:00 -6°C° 0 mm 1 mps 755 mmHg 92%
    03:00 -6°C° 0 mm 1 mps 755 mmHg 92%
    04:00 -6°C° 0 mm 1 mps 755 mmHg 92%
    05:00 -6°C° 0 mm 1 mps 754 mmHg 92%
    06:00 -7°C° 0 mm 2 mps 754 mmHg 92%
    07:00 -7°C° 0 mm 2 mps 754 mmHg 92%
    08:00 -4°C° 0 mm 1 mps 754 mmHg 92%
    09:00 -5°C° 0 mm 2 mps 754 mmHg 90%
    10:00 -4°C° 0 mm 2 mps 754 mmHg 88%
    11:00 -3°C° 0 mm 2 mps 754 mmHg 85%
    12:00 -3°C° 0.1 mm 2 mps 754 mmHg 85%
    13:00 -2°C° 0.1 mm 2 mps 754 mmHg 84%
    14:00 -2°C° 0 mm 2 mps 754 mmHg 83%
    15:00 0°C° 0.2 mm 1 mps 753 mmHg 86%
    16:00 -1°C° 0.2 mm 1 mps 753 mmHg 89%
    17:00 -1°C° 0.2 mm 1 mps 753 mmHg 92%
    18:00 -1°C° 0.3 mm 1 mps 753 mmHg 93%
    19:00 -2°C° 0.3 mm 1 mps 753 mmHg 94%
    20:00 -2°C° 0.3 mm 1 mps 753 mmHg 95%
    21:00 -2°C° 0.2 mm 1 mps 753 mmHg 95%
    22:00 -2°C° 0.2 mm 1 mps 753 mmHg 95%
    23:00 -3°C° 0.2 mm 1 mps 753 mmHg 95%

    Tomorrow, 22 February, Thursday

    Time Temperature Precipitation Wind Pressure Humidity
    00:00 -3°C° 0.1 mm 1 mps 753 mmHg 95%
    01:00 -3°C° 0.1 mm 1 mps 753 mmHg 95%
    02:00 -4°C° 0.1 mm 1 mps 753 mmHg 95%
    03:00 -4°C° 0 mm 1 mps 753 mmHg 95%
    04:00 -4°C° 0 mm 1 mps 753 mmHg 95%
    05:00 -4°C° 0 mm 1 mps 753 mmHg 95%
    06:00 -4°C° 0 mm 1 mps 753 mmHg 95%
    07:00 -4°C° 0 mm 1 mps 753 mmHg 95%
    08:00 -4°C° 0 mm 1 mps 754 mmHg 94%
    09:00 -4°C° 0 mm 1 mps 754 mmHg 91%
    10:00 -3°C° 0 mm 1 mps 754 mmHg 88%
    11:00 -4°C° 0 mm 2 mps 754 mmHg 84%
    12:00 -3°C° 0 mm 2 mps 754 mmHg 83%
    13:00 -3°C° 0 mm 2 mps 754 mmHg 81%
    14:00 -3°C° 0 mm 2 mps 754 mmHg 79%
    15:00 -3°C° 0 mm 2 mps 754 mmHg 81%
    16:00 -4°C° 0 mm 2 mps 754 mmHg 83%
    17:00 -4°C° 0 mm 2 mps 754 mmHg 86%
    18:00 -5°C° 0 mm 2 mps 754 mmHg 88%
    19:00 -6°C° 0 mm 2 mps 754 mmHg 90%
    20:00 -7°C° 0 mm 2 mps 754 mmHg 93%
    21:00 -7°C° 0 mm 2 mps 754 mmHg 93%
    22:00 -7°C° 0 mm 2 mps 754 mmHg 93%
    23:00 -8°C° 0 mm 2 mps 754 mmHg 94%

    Day after tomorrow, 23 February, Friday

    Time Temperature Precipitation Wind Pressure Humidity
    00:00 -7°C° 0 mm 1 mps 754 mmHg 94%
    01:00 -7°C° 0 mm 1 mps 754 mmHg 94%
    02:00 -8°C° 0 mm 1 mps 754 mmHg 95%
    03:00 -8°C° 0 mm 1 mps 754 mmHg 94%
    04:00 -8°C° 0 mm 1 mps 754 mmHg 94%
    05:00 -9°C° 0 mm 1 mps 754 mmHg 94%
    06:00 -9°C° 0 mm 1 mps 754 mmHg 93%
    07:00 -10°C° 0 mm 2 mps 754 mmHg 92%
    08:00 -10°C° 0 mm 2 mps 754 mmHg 91%
    09:00 -9°C° 0 mm 2 mps 754 mmHg 87%
    10:00 -8°C° 0 mm 2 mps 754 mmHg 83%
    11:00 -7°C° 0 mm 2 mps 754 mmHg 79%
    12:00 -6°C° 0 mm 2 mps 754 mmHg 77%
    13:00 -6°C° 0 mm 2 mps 754 mmHg 75%
    14:00 -5°C° 0 mm 2 mps 753 mmHg 72%
    15:00 -6°C° 0 mm 2 mps 753 mmHg 75%
    16:00 -6°C° 0 mm 2 mps 753 mmHg 78%
    17:00 -6°C° 0 mm 1 mps 753 mmHg 80%
    18:00 -6°C° 0 mm 1 mps 753 mmHg 82%
    19:00 -7°C° 0 mm 1 mps 753 mmHg 84%
    20:00 -7°C° 0 mm 1 mps 752 mmHg 86%
    21:00 -8°C° 0 mm 1 mps 752 mmHg 87%
    22:00 -8°C° 0 mm 1 mps 752 mmHg 88%
    23:00 -8°C° 0 mm 1 mps 752 mmHg 88%

    24 February, Saturday

    Time Temperature Precipitation Wind Pressure Humidity
    00:00 -8°C° 0 mm 1 mps 752 mmHg 89%
    01:00 -8°C° 0 mm 1 mps 752 mmHg 90%
    02:00 -8°C° 0 mm 1 mps 751 mmHg 90%
    03:00 -9°C° 0.1 mm 1 mps 751 mmHg 91%
    04:00 -10°C° 0.1 mm 2 mps 751 mmHg 91%
    05:00 -10°C° 0.1 mm 2 mps 751 mmHg 92%
    06:00 -10°C° 0.1 mm 2 mps 751 mmHg 91%
    07:00 -12°C° 0.1 mm 3 mps 751 mmHg 91%
    08:00 -12°C° 0.1 mm 3 mps 751 mmHg 91%
    09:00 -12°C° 0.1 mm 3 mps 751 mmHg 89%
    10:00 -12°C° 0.1 mm 3 mps 752 mmHg 88%
    11:00 -12°C° 0.1 mm 3 mps 752 mmHg 87%
    12:00 -11°C° 0.1 mm 4 mps 752 mmHg 86%
    13:00 -11°C° 0.1 mm 4 mps 752 mmHg 85%
    14:00 -11°C° 0.1 mm 4 mps 752 mmHg 85%
    15:00 -11°C° 0.1 mm 4 mps 752 mmHg 86%
    16:00 -11°C° 0.1 mm 4 mps 752 mmHg 87%
    17:00 -12°C° 0.1 mm 4 mps 752 mmHg 88%
    18:00 -12°C° 0.1 mm 4 mps 753 mmHg 89%
    19:00 -12°C° 0.1 mm 4 mps 753 mmHg 90%
    20:00 -12°C° 0.1 mm 4 mps 753 mmHg 91%
    21:00 -12°C° 0.1 mm 3 mps 754 mmHg 91%
    22:00 -13°C° 0.1 mm 3 mps 754 mmHg 90%
    23:00 -13°C° 0.1 mm 3 mps 754 mmHg 90%

    25 February, Sunday

    Time Temperature Precipitation Wind Pressure Humidity
    00:00 -14°C° 0 mm 3 mps 754 mmHg 90%
    01:00 -15°C° 0 mm 3 mps 755 mmHg 90%
    02:00 -15°C° 0 mm 3 mps 755 mmHg 90%
    03:00 -16°C° 0 mm 3 mps 755 mmHg 91%
    04:00 -17°C° 0 mm 3 mps 755 mmHg 91%
    05:00 -18°C° 0 mm 3 mps 755 mmHg 92%
    06:00 -18°C° 0 mm 3 mps 755 mmHg 92%
    07:00 -19°C° 0 mm 3 mps 756 mmHg 92%
    08:00 -19°C° 0 mm 3 mps 756 mmHg 92%
    09:00 -18°C° 0 mm 3 mps 756 mmHg 89%
    10:00 -17°C° 0 mm 3 mps 757 mmHg 86%
    11:00 -16°C° 0 mm 3 mps 757 mmHg 83%
    12:00 -15°C° 0 mm 3 mps 757 mmHg 82%
    13:00 -15°C° 0 mm 3 mps 757 mmHg 80%
    14:00 -14°C° 0 mm 3 mps 757 mmHg 79%
    15:00 -14°C° 0 mm 3 mps 757 mmHg 81%
    16:00 -15°C° 0 mm 3 mps 756 mmHg 83%
    17:00 -14°C° 0 mm 2 mps 756 mmHg 85%
    18:00 -15°C° 0 mm 2 mps 757 mmHg 87%
    19:00 -16°C° 0 mm 2 mps 757 mmHg 90%
    20:00 -17°C° 0 mm 2 mps 757 mmHg 92%
    21:00 -17°C° 0 mm 2 mps 757 mmHg 93%
    22:00 -18°C° 0 mm 2 mps 757 mmHg 94%
    23:00 -18°C° 0 mm 2 mps 757 mmHg 94%

    26 February, Monday

    Time Temperature Precipitation Wind Pressure Humidity
    00:00 -18°C° 0 mm 2 mps 757 mmHg 95%
    01:00 -16°C° 0 mm 1 mps 757 mmHg 95%
    02:00 -17°C° 0 mm 1 mps 757 mmHg 95%
    03:00 -17°C° 0 mm 1 mps 757 mmHg 96%
    04:00 -17°C° 0 mm 1 mps 757 mmHg 96%
    05:00 -17°C° 0 mm 1 mps 757 mmHg 96%
    06:00 -17°C° 0 mm 1 mps 757 mmHg 95%
    07:00 -17°C° 0 mm 1 mps 757 mmHg 95%
    08:00 -17°C° 0 mm 1 mps 757 mmHg 94%
    09:00 -16°C° 0 mm 1 mps 757 mmHg 89%
    10:00 -15°C° 0 mm 1 mps 757 mmHg 85%
    11:00 -13°C° 0 mm 1 mps 757 mmHg 80%
    12:00 -12°C° 0 mm 1 mps 756 mmHg 78%
    13:00 -12°C° 0 mm 1 mps 756 mmHg 75%
    14:00 -11°C° 0 mm 1 mps 756 mmHg 73%
    15:00 -12°C° 0 mm 1 mps 756 mmHg 75%
    16:00 -12°C° 0 mm 0 mps 755 mmHg 78%
    17:00 -13°C° 0 mm 0 mps 755 mmHg 80%
    18:00 -13°C° 0 mm 0 mps 755 mmHg 83%
    19:00 -14°C° 0 mm 1 mps 755 mmHg 86%
    20:00 -15°C° 0 mm 1 mps 755 mmHg 89%
    21:00 -15°C° 0 mm 1 mps 755 mmHg 90%
    22:00 -16°C° 0 mm 1 mps 755 mmHg 91%
    23:00 -16°C° 0 mm 1 mps 755 mmHg 92%
    Show more